Location: Norwich
(42.5310°N, 75.5240°W)
Time: 20:29:51
(UTC-04:00)

Envisat - Pass Details

Date: 02 April 2019
Orbit: 764 x 766 km, 98.2° (Epoch: 22 April)

Event Time Altitude Azimuth Distance (km) Brightness Sun altitude
Rises 21:10:23 0° 221° (SW) 3,221 6.4 -18.6°
Reaches altitude 10° 21:14:36 10° 255° (WSW) 2,302 6.1 -19.3°
Maximum altitude 21:16:05 11° 272° (W) 2,221 6.3 -19.6°
Drops below altitude 10° 21:17:35 10° 290° (WNW) 2,306 6.7 -19.8°
Sets 21:21:50 0° 324° (NW) 3,240 7.4 -20.5°
